506  
ASUS44 KHUN 161610  
RWRHUN  
 
WEATHER ROUNDUP FOR THE TENNESSEE VALLEY  
NATIONAL WEATHER SERVICE HUNTSVILLE AL  
1100 AM CDT MON JUL 16 2018  
 
ALZ001>004-161700-  
NORTHWEST ALABAMA  
 
CITY SKY/WX TMP DP RH WIND PRES REMARKS
 
COURTLAND HCN N/A 73 N/A N/A S6 N/A  
RUSSELLVILLE N/A 73 N/A N/A MISG N/A  
SHOALS AIRPORT NOT AVBL  
SHOALS TVA RES N/A 73 N/A N/A MISG N/A  

 
 
ALZ005>007-016-161700-  
NORTH CENTRAL ALABAMA  
 
CITY SKY/WX TMP DP RH WIND PRES REMARKS
 
CULLMAN AG STN N/A 73 N/A N/A NW5 N/A  
DECATUR AP NOT AVBL  
HUNTSVILLE AP LGT RAIN 74 74 100 SW5 30.08F  
MERIDIANVILLE PTSUNNY 75 74 96 CALM 30.08F  
REDSTONE ARSN LGT RAIN 73 73 100 W5 30.07F  
VINEMONT AP CLOUDY 71 70 96 CALM 30.13S  

 
 
ALZ008>010-161700-  
NORTHEAST ALABAMA  
 
CITY SKY/WX TMP DP RH WIND PRES REMARKS
 
ALBERTVILLE FAIR 79 77 94 W8 30.10S  
FORT PAYNE PTSUNNY 81 72 74 CALM 30.08S  
SCOTTSBORO AP FAIR 82 75 78 SW7 30.07S  
SCOTTSBORO HCN N/A 82 N/A N/A MISG N/A  
VALLEY HEAD N/A 79 N/A N/A MISG N/A  

 
 
TNZ076-096-097-161700-  
SOUTHEASTERN MIDDLE TENNESSEE  
 
CITY SKY/WX TMP DP RH WIND PRES REMARKS
 
TULLAHOMA CLOUDY 77 N/A N/A W8 30.08S  
WINCHESTER CLOUDY 79 72 78 W8G16 30.09R  

 
   
..SURROUNDING SITES
 
 
 
CITY SKY/WX TMP DP RH WIND PRES REMARKS
 
ATLANTA PTSUNNY 81 74 79 S3 30.09R  
ANNISTON FAIR 83 73 72 SW5 30.08S  
BIRMINGHAM CLOUDY 82 73 74 W9 30.11R  
CHATTANOOGA PTSUNNY 83 73 72 CALM 30.06F  
CORINTH PTSUNNY 77 73 88 S6 30.04R  
DALTON CLOUDY 73 72 94 CALM 30.10S  
GADSDEN PTSUNNY 82 75 78 MISG 30.09R  
GOLDEN TRNGL PTSUNNY 86 77 74 N3 30.05S HX 97  
HALEYVILLE RAIN 72 70 93 SE7 30.11F  
JACKSON TN FAIR 85 76 74 CALM 30.03R HX 94  
MEMPHIS PTSUNNY 84 79 85 CALM 30.02S HX 96  
NASHVILLE PTSUNNY 82 73 74 S3 30.05S  
OXFORD MS PTSUNNY 81 73 78 CALM 30.06R  
ROME PTSUNNY 84 76 76 VRB5 30.07S HX 93  
SELMER MOSUNNY 81 75 83 VRB5 30.03S  
TUPELO PTSUNNY 81 74 79 SE6 30.04  
TUSCALOOSA FAIR 77 74 90 CALM 30.07R  

 
   
..GULF COAST WEATHER
 
 
 
CITY SKY/WX TMP DP RH WIND PRES REMARKS
 
GULFPORT FAIR 88 78 72 N8 30.05S HX 101  
PASCAGOULA FAIR 87 77 72 N6 30.05F HX 99  
MOBILE PTSUNNY 88 78 72 VRB7 30.06F HX 101  
GULF SHORES PTSUNNY 89 77 67 NW5 30.05S HX 102  
PENSACOLA PTSUNNY 89 74 60 VRB6 30.04F HX 98  
DESTIN FAIR 90 73 57 CALM 30.05F HX 98  
PANAMA CITY PTSUNNY 85 77 76 S5 30.06S HX 96  
APPALACHICOLA FAIR 89 78 70 VRB7 30.06F HX 103  

 
 
 
 
CLICK HERE TO GO TO PREVIOUS BULLETINS.

The Nexlab AL Page
The Nexlab TN Page Main Text Page